Time,TemperatureF,DewpointF,PressureIn,WindDirection,WindDirectionDegrees,WindSpeedMPH,WindSpeedGustMPH,Humidity,HourlyPrecipIn,Conditions,Clouds,dailyrainin,SoftwareType,DateUTC
2013-01-25 00:02:00,35.0,26.0,30.06,East,90,0.0,-999.0,70,-99.99,,,-99.99,,2013-01-25 06:02:00,
2013-01-25 00:11:00,35.0,26.0,30.06,East,90,0.0,-999.0,70,-99.99,,,-99.99,,2013-01-25 06:11:00,
2013-01-25 00:21:00,35.0,28.0,30.05,East,90,1.0,-999.0,75,-99.99,,,-99.99,,2013-01-25 06:21:00,
2013-01-25 00:32:00,34.0,30.0,30.05,East,90,1.0,-999.0,84,-99.99,,,-99.99,,2013-01-25 06:32:00,
2013-01-25 00:42:00,34.0,30.0,30.05,East,90,1.0,-999.0,84,-99.99,,,-99.99,,2013-01-25 06:42:00,
2013-01-25 00:52:00,33.0,29.0,30.04,East,90,1.0,-999.0,86,-99.99,,,-99.99,,2013-01-25 06:52:00,
2013-01-25 01:02:00,33.0,30.0,30.03,East,90,1.0,-999.0,90,-99.99,,,-99.99,,2013-01-25 07:02:00,
2013-01-25 01:11:00,33.0,30.0,30.03,East,90,1.0,-999.0,90,-99.99,,,-99.99,,2013-01-25 07:11:00,
2013-01-25 01:21:00,33.0,31.0,30.04,East,90,1.0,-999.0,91,-99.99,,,-99.99,,2013-01-25 07:21:00,
2013-01-25 01:32:00,32.0,30.0,30.04,NE,47,2.0,-999.0,92,-99.99,,,-99.99,,2013-01-25 07:32:00,
2013-01-25 01:42:00,32.0,30.0,30.04,NE,47,2.0,-999.0,92,-99.99,,,-99.99,,2013-01-25 07:42:00,
2013-01-25 01:51:00,32.0,30.0,30.04,East,97,2.0,-999.0,93,-99.99,,,-99.99,,2013-01-25 07:51:00,
2013-01-25 02:01:00,31.0,29.0,30.04,East,86,1.0,-999.0,93,-99.99,,,-99.99,,2013-01-25 08:01:00,
2013-01-25 02:11:00,32.0,30.0,30.03,East,87,1.0,-999.0,94,-99.99,,,-99.99,,2013-01-25 08:11:00,
2013-01-25 02:21:00,32.0,30.0,30.03,East,87,1.0,-999.0,94,-99.99,,,-99.99,,2013-01-25 08:21:00,
2013-01-25 02:32:00,32.0,30.0,30.02,ESE,107,1.0,-999.0,94,-99.99,,,-99.99,,2013-01-25 08:32:00,
2013-01-25 02:41:00,32.0,30.0,30.02,ESE,107,1.0,-999.0,94,-99.99,,,-99.99,,2013-01-25 08:41:00,
2013-01-25 02:52:00,31.0,29.0,30.02,ESE,108,2.0,-999.0,94,-99.99,,,-99.99,,2013-01-25 08:52:00,
2013-01-25 03:01:00,31.0,29.0,30.03,ESE,107,1.0,-999.0,94,-99.99,,,-99.99,,2013-01-25 09:01:00,
2013-01-25 03:11:00,31.0,29.0,30.03,ESE,107,1.0,-999.0,94,-99.99,,,-99.99,,2013-01-25 09:11:00,
2013-01-25 03:21:00,31.0,29.0,30.02,NE,42,2.0,-999.0,94,-99.99,,,-99.99,,2013-01-25 09:21:00,
2013-01-25 03:31:00,31.0,29.0,30.03,NE,42,1.0,-999.0,94,-99.99,,,-99.99,,2013-01-25 09:31:00,
2013-01-25 03:42:00,31.0,29.0,30.03,NE,42,1.0,-999.0,94,-99.99,,,-99.99,,2013-01-25 09:42:00,
2013-01-25 03:51:00,31.0,29.0,30.02,North,9,1.0,-999.0,94,-99.99,,,-99.99,,2013-01-25 09:51:00,
2013-01-25 04:02:00,31.0,29.0,30.02,NNE,20,1.0,-999.0,94,-99.99,,,-99.99,,2013-01-25 10:02:00,
2013-01-25 04:12:00,31.0,29.0,30.02,NNE,20,1.0,-999.0,94,-99.99,,,-99.99,,2013-01-25 10:12:00,
2013-01-25 04:21:00,31.0,29.0,30.03,NNE,30,1.0,-999.0,94,-99.99,,,-99.99,,2013-01-25 10:21:00,
2013-01-25 04:32:00,31.0,29.0,30.02,NNE,30,1.0,-999.0,94,-99.99,,,-99.99,,2013-01-25 10:32:00,
2013-01-25 04:42:00,31.0,29.0,30.02,NNE,30,1.0,-999.0,94,-99.99,,,-99.99,,2013-01-25 10:42:00,
2013-01-25 04:51:00,31.0,29.0,30.03,NNE,30,1.0,-999.0,94,-99.99,,,-99.99,,2013-01-25 10:51:00,
2013-01-25 05:02:00,31.0,30.0,30.04,NNE,30,1.0,-999.0,95,-99.99,,,-99.99,,2013-01-25 11:02:00,
2013-01-25 05:11:00,31.0,30.0,30.04,NNE,30,1.0,-999.0,95,-99.99,,,-99.99,,2013-01-25 11:11:00,
2013-01-25 05:22:00,31.0,30.0,30.03,NNE,31,1.0,-999.0,95,-99.99,,,-99.99,,2013-01-25 11:22:00,
2013-01-25 05:32:00,30.0,29.0,30.02,NNE,31,0.0,-999.0,95,-99.99,,,-99.99,,2013-01-25 11:32:00,
2013-01-25 05:42:00,30.0,29.0,30.02,NNE,31,0.0,-999.0,95,-99.99,,,-99.99,,2013-01-25 11:42:00,
2013-01-25 05:52:00,31.0,30.0,30.03,NNE,31,0.0,-999.0,95,-99.99,,,-99.99,,2013-01-25 11:52:00,
2013-01-25 06:02:00,31.0,30.0,30.03,NNE,31,0.0,-999.0,95,-99.99,,,-99.99,,2013-01-25 12:02:00,
2013-01-25 06:11:00,31.0,30.0,30.03,NNE,31,0.0,-999.0,95,-99.99,,,-99.99,,2013-01-25 12:11:00,
2013-01-25 06:22:00,31.0,30.0,30.03,NNE,31,0.0,-999.0,95,-99.99,,,-99.99,,2013-01-25 12:22:00,
2013-01-25 06:32:00,31.0,30.0,30.03,NNE,31,0.0,-999.0,95,-99.99,,,-99.99,,2013-01-25 12:32:00,
2013-01-25 06:42:00,31.0,30.0,30.03,NNE,31,0.0,-999.0,95,-99.99,,,-99.99,,2013-01-25 12:42:00,
2013-01-25 06:53:00,31.0,30.0,30.03,NNE,31,0.0,-999.0,95,-99.99,,,-99.99,,2013-01-25 12:53:00,
2013-01-25 07:02:00,31.0,30.0,30.05,NNE,31,0.0,-999.0,96,-99.99,,,-99.99,,2013-01-25 13:02:00,
2013-01-25 07:11:00,31.0,30.0,30.05,NNE,31,0.0,-999.0,96,-99.99,,,-99.99,,2013-01-25 13:11:00,
2013-01-25 07:22:00,31.0,30.0,30.06,NNE,31,0.0,-999.0,96,-99.99,,,-99.99,,2013-01-25 13:22:00,
2013-01-25 07:32:00,31.0,30.0,30.08,NNE,31,0.0,-999.0,96,-99.99,,,-99.99,,2013-01-25 13:32:00,
2013-01-25 07:42:00,31.0,30.0,30.08,NNE,31,0.0,-999.0,96,-99.99,,,-99.99,,2013-01-25 13:42:00,
2013-01-25 07:52:00,32.0,31.0,30.08,NNE,31,0.0,-999.0,96,-99.99,,,-99.99,,2013-01-25 13:52:00,
2013-01-25 08:03:00,32.0,31.0,30.08,NNE,31,0.0,-999.0,96,-99.99,,,-99.99,,2013-01-25 14:03:00,
2013-01-25 08:12:00,32.0,31.0,30.08,NNE,31,0.0,-999.0,96,-99.99,,,-99.99,,2013-01-25 14:12:00,
2013-01-25 08:22:00,32.0,31.0,30.08,NNE,31,0.0,-999.0,96,-99.99,,,-99.99,,2013-01-25 14:22:00,
2013-01-25 08:32:00,33.0,32.0,30.08,NNE,31,0.0,-999.0,96,-99.99,,,-99.99,,2013-01-25 14:32:00,
2013-01-25 08:42:00,33.0,32.0,30.08,NNE,31,0.0,-999.0,96,-99.99,,,-99.99,,2013-01-25 14:42:00,
2013-01-25 08:52:00,33.0,32.0,30.09,NNE,31,0.0,-999.0,96,-99.99,,,-99.99,,2013-01-25 14:52:00,
2013-01-25 09:02:00,33.0,32.0,30.09,NNE,30,1.0,-999.0,96,-99.99,,,-99.99,,2013-01-25 15:02:00,
2013-01-25 09:12:00,33.0,32.0,30.09,NNE,30,1.0,-999.0,96,-99.99,,,-99.99,,2013-01-25 15:12:00,
2013-01-25 09:22:00,34.0,33.0,30.09,NW,312,2.0,-999.0,95,-99.99,,,-99.99,,2013-01-25 15:22:00,
2013-01-25 09:32:00,35.0,33.0,30.10,NW,312,2.0,-999.0,94,-99.99,,,-99.99,,2013-01-25 15:32:00,
2013-01-25 09:42:00,35.0,33.0,30.10,NW,312,2.0,-999.0,94,-99.99,,,-99.99,,2013-01-25 15:42:00,
2013-01-25 09:52:00,35.0,33.0,30.11,NW,306,3.0,-999.0,91,-99.99,,,-99.99,,2013-01-25 15:52:00,
2013-01-25 10:03:00,35.0,32.0,30.11,NNW,329,3.0,-999.0,90,-99.99,,,-99.99,,2013-01-25 16:03:00,
2013-01-25 10:12:00,35.0,32.0,30.11,NNW,329,3.0,-999.0,90,-99.99,,,-99.99,,2013-01-25 16:12:00,
2013-01-25 10:22:00,36.0,33.0,30.12,NNW,334,4.0,-999.0,87,-99.99,,,-99.99,,2013-01-25 16:22:00,
2013-01-25 10:32:00,36.0,32.0,30.11,NNW,331,3.0,-999.0,85,-99.99,,,-99.99,,2013-01-25 16:32:00,
2013-01-25 10:43:00,36.0,32.0,30.11,NNW,331,3.0,-999.0,85,-99.99,,,-99.99,,2013-01-25 16:43:00,
2013-01-25 10:52:00,37.0,32.0,30.12,NNW,333,3.0,-999.0,83,-99.99,,,-99.99,,2013-01-25 16:52:00,
2013-01-25 11:02:00,37.0,32.0,30.12,NW,308,2.0,-999.0,82,-99.99,,,-99.99,,2013-01-25 17:02:00,
2013-01-25 11:12:00,37.0,32.0,30.12,NW,308,2.0,-999.0,82,-99.99,,,-99.99,,2013-01-25 17:12:00,
2013-01-25 11:22:00,38.0,33.0,30.12,NNE,24,3.0,-999.0,82,-99.99,,,-99.99,,2013-01-25 17:22:00,
2013-01-25 11:32:00,38.0,32.0,30.12,NNW,334,2.0,-999.0,80,-99.99,,,-99.99,,2013-01-25 17:32:00,
2013-01-25 11:43:00,38.0,32.0,30.12,NNW,334,2.0,-999.0,80,-99.99,,,-99.99,,2013-01-25 17:43:00,
2013-01-25 11:52:00,39.0,33.0,30.12,WNW,290,2.0,-999.0,80,-99.99,,,-99.99,,2013-01-25 17:52:00,
2013-01-25 12:03:00,40.0,34.0,30.12,NNW,329,2.0,-999.0,80,-99.99,,,-99.99,,2013-01-25 18:03:00,
2013-01-25 12:12:00,40.0,34.0,30.12,NNW,329,2.0,-999.0,80,-99.99,,,-99.99,,2013-01-25 18:12:00,
2013-01-25 12:23:00,41.0,35.0,30.12,NNW,338,3.0,-999.0,78,-99.99,,,-99.99,,2013-01-25 18:23:00,
2013-01-25 12:33:00,42.0,35.0,30.12,NW,320,3.0,-999.0,76,-99.99,,,-99.99,,2013-01-25 18:33:00,
2013-01-25 12:42:00,42.0,35.0,30.12,NW,320,3.0,-999.0,76,-99.99,,,-99.99,,2013-01-25 18:42:00,
2013-01-25 12:52:00,42.0,34.0,30.11,NNW,333,3.0,-999.0,73,-99.99,,,-99.99,,2013-01-25 18:52:00,
2013-01-25 13:03:00,42.0,34.0,30.11,WNW,284,3.0,-999.0,74,-99.99,,,-99.99,,2013-01-25 19:03:00,
2013-01-25 13:12:00,42.0,34.0,30.11,WNW,284,3.0,-999.0,74,-99.99,,,-99.99,,2013-01-25 19:12:00,
2013-01-25 13:22:00,44.0,34.0,30.11,NNW,327,4.0,-999.0,69,-99.99,,,-99.99,,2013-01-25 19:22:00,
2013-01-25 13:32:00,45.0,34.0,30.10,North,360,4.0,-999.0,64,-99.99,,,-99.99,,2013-01-25 19:32:00,
2013-01-25 13:42:00,45.0,34.0,30.10,North,360,4.0,-999.0,64,-99.99,,,-99.99,,2013-01-25 19:42:00,
2013-01-25 13:52:00,47.0,35.0,30.11,WNW,292,3.0,-999.0,63,-99.99,,,-99.99,,2013-01-25 19:52:00,
2013-01-25 14:02:00,47.0,34.0,30.11,NNW,336,3.0,-999.0,60,-99.99,,,-99.99,,2013-01-25 20:02:00,
2013-01-25 14:12:00,47.0,34.0,30.11,NNW,336,3.0,-999.0,60,-99.99,,,-99.99,,2013-01-25 20:12:00,
2013-01-25 14:22:00,47.0,33.0,30.11,WNW,285,4.0,-999.0,58,-99.99,,,-99.99,,2013-01-25 20:22:00,
2013-01-25 14:32:00,48.0,33.0,30.11,NE,38,4.0,-999.0,56,-99.99,,,-99.99,,2013-01-25 20:32:00,
2013-01-25 14:42:00,48.0,33.0,30.11,NE,38,4.0,-999.0,56,-99.99,,,-99.99,,2013-01-25 20:42:00,
2013-01-25 14:52:00,48.0,33.0,30.10,NNE,27,4.0,-999.0,55,-99.99,,,-99.99,,2013-01-25 20:52:00,
2013-01-25 15:02:00,48.0,33.0,30.10,NNW,340,4.0,-999.0,55,-99.99,,,-99.99,,2013-01-25 21:02:00,
2013-01-25 15:12:00,48.0,33.0,30.10,NNW,340,4.0,-999.0,55,-99.99,,,-99.99,,2013-01-25 21:12:00,
2013-01-25 15:22:00,48.0,32.0,30.10,NW,306,3.0,-999.0,54,-99.99,,,-99.99,,2013-01-25 21:22:00,
2013-01-25 15:32:00,49.0,33.0,30.10,North,360,3.0,-999.0,53,-99.99,,,-99.99,,2013-01-25 21:32:00,
2013-01-25 15:42:00,49.0,33.0,30.10,North,360,3.0,-999.0,53,-99.99,,,-99.99,,2013-01-25 21:42:00,
2013-01-25 15:52:00,49.0,33.0,30.10,North,355,4.0,-999.0,54,-99.99,,,-99.99,,2013-01-25 21:52:00,
2013-01-25 16:02:00,49.0,33.0,30.09,North,5,4.0,-999.0,53,-99.99,,,-99.99,,2013-01-25 22:02:00,
2013-01-25 16:12:00,49.0,33.0,30.09,North,5,4.0,-999.0,53,-99.99,,,-99.99,,2013-01-25 22:12:00,
2013-01-25 16:22:00,49.0,32.0,30.09,NE,44,2.0,-999.0,52,-99.99,,,-99.99,,2013-01-25 22:22:00,
2013-01-25 16:32:00,49.0,32.0,30.09,North,5,3.0,-999.0,52,-99.99,,,-99.99,,2013-01-25 22:32:00,
2013-01-25 16:42:00,49.0,32.0,30.09,North,5,3.0,-999.0,52,-99.99,,,-99.99,,2013-01-25 22:42:00,
2013-01-25 16:52:00,48.0,32.0,30.09,ENE,63,1.0,-999.0,54,-99.99,,,-99.99,,2013-01-25 22:52:00,
2013-01-25 17:02:00,48.0,33.0,30.09,NNE,24,1.0,-999.0,55,-99.99,,,-99.99,,2013-01-25 23:02:00,
2013-01-25 17:12:00,48.0,33.0,30.09,NNE,24,1.0,-999.0,55,-99.99,,,-99.99,,2013-01-25 23:12:00,
2013-01-25 17:22:00,47.0,32.0,30.09,North,9,1.0,-999.0,56,-99.99,,,-99.99,,2013-01-25 23:22:00,
2013-01-25 17:32:00,47.0,33.0,30.10,North,9,0.0,-999.0,57,-99.99,,,-99.99,,2013-01-25 23:32:00,
2013-01-25 17:42:00,47.0,33.0,30.10,North,9,0.0,-999.0,57,-99.99,,,-99.99,,2013-01-25 23:42:00,
2013-01-25 17:52:00,46.0,32.0,30.10,North,9,0.0,-999.0,58,-99.99,,,-99.99,,2013-01-25 23:52:00,
2013-01-25 18:02:00,45.0,32.0,30.11,North,9,0.0,-999.0,60,-99.99,,,-99.99,,2013-01-26 00:02:00,
2013-01-25 18:11:00,45.0,32.0,30.11,North,9,0.0,-999.0,60,-99.99,,,-99.99,,2013-01-26 00:11:00,
2013-01-25 18:22:00,45.0,32.0,30.11,North,9,0.0,-999.0,61,-99.99,,,-99.99,,2013-01-26 00:22:00,
2013-01-25 18:32:00,44.0,31.0,30.12,North,9,0.0,-999.0,61,-99.99,,,-99.99,,2013-01-26 00:32:00,
2013-01-25 18:42:00,44.0,31.0,30.12,North,9,0.0,-999.0,61,-99.99,,,-99.99,,2013-01-26 00:42:00,
2013-01-25 18:52:00,44.0,32.0,30.12,North,9,0.0,-999.0,62,-99.99,,,-99.99,,2013-01-26 00:52:00,
2013-01-25 19:02:00,43.0,32.0,30.12,North,9,0.0,-999.0,64,-99.99,,,-99.99,,2013-01-26 01:02:00,
2013-01-25 19:11:00,43.0,32.0,30.12,North,9,0.0,-999.0,64,-99.99,,,-99.99,,2013-01-26 01:11:00,
2013-01-25 19:22:00,42.0,31.0,30.12,North,9,0.0,-999.0,66,-99.99,,,-99.99,,2013-01-26 01:22:00,
2013-01-25 19:32:00,42.0,32.0,30.12,North,9,0.0,-999.0,67,-99.99,,,-99.99,,2013-01-26 01:32:00,
2013-01-25 19:42:00,42.0,32.0,30.12,North,9,0.0,-999.0,67,-99.99,,,-99.99,,2013-01-26 01:42:00,
2013-01-25 19:52:00,41.0,31.0,30.13,North,9,0.0,-999.0,66,-99.99,,,-99.99,,2013-01-26 01:52:00,
2013-01-25 20:01:00,41.0,31.0,30.12,North,9,0.0,-999.0,67,-99.99,,,-99.99,,2013-01-26 02:01:00,
2013-01-25 20:11:00,41.0,31.0,30.12,North,9,0.0,-999.0,67,-99.99,,,-99.99,,2013-01-26 02:11:00,
2013-01-25 20:22:00,41.0,31.0,30.12,North,9,0.0,-999.0,67,-99.99,,,-99.99,,2013-01-26 02:22:00,
2013-01-25 20:32:00,41.0,30.0,30.12,North,9,0.0,-999.0,65,-99.99,,,-99.99,,2013-01-26 02:32:00,
2013-01-25 20:42:00,41.0,30.0,30.12,North,9,0.0,-999.0,65,-99.99,,,-99.99,,2013-01-26 02:42:00,
2013-01-25 20:52:00,41.0,30.0,30.12,North,9,0.0,-999.0,65,-99.99,,,-99.99,,2013-01-26 02:52:00,
2013-01-25 21:02:00,41.0,31.0,30.13,North,9,0.0,-999.0,66,-99.99,,,-99.99,,2013-01-26 03:02:00,
2013-01-25 21:11:00,41.0,31.0,30.13,North,9,0.0,-999.0,66,-99.99,,,-99.99,,2013-01-26 03:11:00,
2013-01-25 21:21:00,41.0,31.0,30.13,North,9,0.0,-999.0,67,-99.99,,,-99.99,,2013-01-26 03:21:00,
2013-01-25 21:31:00,40.0,30.0,30.14,North,9,0.0,-999.0,67,-99.99,,,-99.99,,2013-01-26 03:31:00,
2013-01-25 21:43:00,40.0,30.0,30.14,North,9,0.0,-999.0,67,-99.99,,,-99.99,,2013-01-26 03:43:00,
2013-01-25 21:51:00,40.0,30.0,30.13,North,9,0.0,-999.0,67,-99.99,,,-99.99,,2013-01-26 03:51:00,
2013-01-25 22:02:00,41.0,30.0,30.14,North,9,0.0,-999.0,65,-99.99,,,-99.99,,2013-01-26 04:02:00,
2013-01-25 22:12:00,41.0,30.0,30.14,North,9,0.0,-999.0,65,-99.99,,,-99.99,,2013-01-26 04:12:00,
2013-01-25 22:21:00,40.0,30.0,30.15,North,9,0.0,-999.0,66,-99.99,,,-99.99,,2013-01-26 04:21:00,
2013-01-25 22:32:00,40.0,30.0,30.15,North,9,0.0,-999.0,66,-99.99,,,-99.99,,2013-01-26 04:32:00,
2013-01-25 22:42:00,40.0,30.0,30.15,North,9,0.0,-999.0,66,-99.99,,,-99.99,,2013-01-26 04:42:00,
2013-01-25 22:52:00,39.0,29.0,30.14,North,9,0.0,-999.0,68,-99.99,,,-99.99,,2013-01-26 04:52:00,
2013-01-25 23:03:00,39.0,30.0,30.15,North,9,0.0,-999.0,69,-99.99,,,-99.99,,2013-01-26 05:03:00,
2013-01-25 23:12:00,39.0,30.0,30.15,North,9,0.0,-999.0,69,-99.99,,,-99.99,,2013-01-26 05:12:00,
2013-01-25 23:23:00,38.0,29.0,30.15,North,9,0.0,-999.0,69,-99.99,,,-99.99,,2013-01-26 05:23:00,
2013-01-25 23:33:00,38.0,29.0,30.15,North,9,0.0,-999.0,70,-99.99,,,-99.99,,2013-01-26 05:33:00,
2013-01-25 23:41:00,38.0,29.0,30.15,North,9,0.0,-999.0,70,-99.99,,,-99.99,,2013-01-26 05:41:00,
2013-01-25 23:52:00,38.0,29.0,30.15,North,9,0.0,-999.0,71,-99.99,,,-99.99,,2013-01-26 05:52:00,